Overview Statistics Trail Chart Weather Telemetry Raw packets
 

This is the latest recevied weather packets stored in our database for station/object SV9TNF-52. If no packets are shown the sender has not sent any weather packets the latest 10 day(s).

<< 10 11 12 13 14 15 16 >>
Time Temp. Humidity Pressure Rain* Wind** Luminosity Snow
1788584554 27.78° C 61% 1020.7 hPa 0 mm 24.14 m/s, 18° - -
1788584254 27.78° C 60% 1020.7 hPa 0 mm 10.73 m/s, 23° - -
1788583954 27.78° C 59% 1020.7 hPa 0 mm 15.2 m/s, 43° - -
1788583653 27.22° C 60% 1020.3 hPa 0 mm 13.86 m/s, 48° - -
1788583353 27.22° C 60% 1020.3 hPa 0 mm 8.49 m/s, 221° - -
1788583054 27.22° C 62% 1020.3 hPa 0 mm 9.39 m/s, 9° - -
1788582753 27.22° C 63% 1020.3 hPa 0 mm 12.07 m/s, 6° - -
1788582453 27.22° C 63% 1020.3 hPa 0 mm 8.05 m/s, 4° - -
1788582153 26.67° C 63% 1020.3 hPa 0 mm 8.94 m/s, 352° - -
1788581853 26.67° C 63% 1020.3 hPa 0 mm 11.18 m/s, 84° - -
1788581553 26.67° C 63% 1020.3 hPa 0 mm 8.94 m/s, 356° - -
1788581253 26.67° C 64% 1020.3 hPa 0 mm 4.02 m/s, 315° - -
1788580953 26.67° C 64% 1020.3 hPa 0 mm 11.18 m/s, 333° - -
1788580652 26.67° C 62% 1020 hPa 0 mm 9.39 m/s, 211° - -
1788580352 26.67° C 62% 1020 hPa 0 mm 12.52 m/s, 344° - -
1788580052 26.67° C 64% 1020 hPa 0 mm 8.94 m/s, 37° - -
1788579752 26.67° C 63% 1020 hPa 0 mm 9.83 m/s, 247° - -
1788579452 27.22° C 64% 1020 hPa 0 mm 8.94 m/s, 9° - -
1788579152 26.67° C 64% 1020 hPa 0 mm 8.49 m/s, 45° - -
1788578852 26.67° C 64% 1020 hPa 0 mm 9.83 m/s, 38° - -
1788578552 26.67° C 64% 1020 hPa 0 mm 8.49 m/s, 24° - -
1788578252 26.67° C 62% 1020 hPa 0 mm 7.15 m/s, 356° - -
1788577952 26.67° C 63% 1020 hPa 0 mm 8.05 m/s, 2° - -
1788577652 26.67° C 63% 1020 hPa 0 mm 6.71 m/s, 349° - -
1788577351 26.67° C 64% 1020 hPa 0 mm 6.26 m/s, 290° - -

* Rain latest hour (hover to see other rain measurements)
** Current wind speed in m/s (hover to see current wind gust speed)